FENGYUN 1C DEB, 30509

Orbit data source: Space-Track

FENGYUN 1C DEB, 30509 is space debris in SSO originally from a launch on Mon, 10 May 1999 UTC launched from the Taiyaun Space Center, China (TSC). Fengyun 1C debris stems from the Chinese weather satellite Fengyun-1C, which was intentionally destroyed by a Chinese anti-satellite missile in 2007. This event dramatically increased the amount of space debris, with thousands of trackable fragments posing hazards to satellites and human spaceflight. The Fengyun 1C debris cloud has become a focal point in discussions about space sustainability and the need for international regulations to prevent the creation of new debris.

Loading next visibility...
Identifier
30509, 1999-025AHX
Orbit
SSO
Country
Flag of CNCN / PRC
Related business
Manufacturer
Unknown
Mission
Spacecraft
Bus & Motor
Unknown
Mass
Unknown
Launch date (UTC)
1999-05-10 (27 years ago)
Launch vehicle
Unknown
Launch site
Taiyaun Space Center, China (TSC)
Object type
Payload
Rocket body
Debris
Shape & HBR
Unknown shape, 0.1 m
Radar Cross Section
Small (<0.1 m²)

Expand to show TLE details & history
Last TLE update: 2 days ago

TLE from 2 days ago
0 FENGYUN 1C DEB
1 30509U 99025AHX 26035.18166696  .00003442  00000-0  19516-2 0  9998
2 30509  98.4646 268.7237 0100581 273.2385 214.2027 14.08105492964748
Epoch: 2026-02-04T04:21Z
TLE epoch observation values (Epoch: 2026-02-04T04:21:36.025Z)
Latitude
52.47255°
Longitude
-99.91544°
Altitude
934.859 km
Speed
7.358 km/s
True Right ascension
06h 39m 20s
True Declination
52° 18' 37"
Sunlit
Object was in full shadow at epoch
Visualization orbit readout
Latitude
Unknown
Longitude
Unknown
Altitude
Unknown
Speed
Unknown
Apparent Right ascension
Unknown
Apparent Declination
Unknown
Sunlit
N/A
Visualization observer readout
Local Sidereal Time
07:01:55
Azimuth
Unknown
Elevation
Unknown
Doppler factor
Unknown
Orbital elements
Apogee altitude
935.857 km
Perigee altitude
790.192 km
Semi-major axis
7,241.162 km
Eccentricity
0.01006
Inclination
98.4646°
RAAN
268.7237°
Arg. of periapsis
273.2385°
True anomaly
213.5615°
Mean anomaly
214.2027°
Eccentric anomaly
213.88143°
Mean motion
3.52234 °/min
Orbital period
102.2 mins
BSTAR
0.0019516
Loading maneuver chart data...
Computing Atmospheric mass density...

Documentation

Showing up to 5 results
|